MSOLO KX06-KBCT

Flight info

Callsign MSOLO
Flight time N/A
Altitude 7500
Route 271228N0814013W/VPIBR 270200N0810726W/SIGNL 265559N0805821W/TTYLR 263738N0805160W/THNDR 262904N0803353W/ALNZO 261915N0801223W/VP043
Aircraft EC45/L-SDFGRY/EB1

Departure

Time N/A
Airport KX06

Arrival

Time 2026-04-18 16:26
Airport Boca Raton Airport (KBCT)
Time Latitude Longitude Altitude Speed Heading
2026-04-18 15:07 27.19717 -81.83779 62 ft 0 kts 232°
2026-04-18 15:19 27.19716 -81.83779 64 ft 1 kts 234°
2026-04-18 15:20 27.19717 -81.83780 68 ft 0 kts 234°
2026-04-18 15:21 27.19718 -81.83783 76 ft 2 kts 233°
2026-04-18 15:21 27.19686 -81.83808 79 ft 6 kts 186°
2026-04-18 15:21 27.19656 -81.83792 73 ft 4 kts 179°
2026-04-18 15:21 27.19632 -81.83781 77 ft 4 kts 156°
2026-04-18 15:22 27.19606 -81.83760 76 ft 4 kts 156°
2026-04-18 15:22 27.19597 -81.83755 75 ft 0 kts 156°
2026-04-18 15:22 27.19597 -81.83756 75 ft 0 kts 146°
2026-04-18 15:22 27.19597 -81.83755 75 ft 0 kts 146°
2026-04-18 15:23 27.19597 -81.83756 77 ft 0 kts 146°
2026-04-18 15:23 27.19597 -81.83755 76 ft 0 kts 147°
2026-04-18 15:24 27.19595 -81.83756 77 ft 1 kts 138°
2026-04-18 15:25 27.19583 -81.83749 74 ft 3 kts 108°
2026-04-18 15:25 27.19578 -81.83737 75 ft 2 kts 108°
2026-04-18 15:25 27.19580 -81.83710 76 ft 6 kts 68°
2026-04-18 15:25 27.19622 -81.83683 133 ft 11 kts 75°
2026-04-18 15:26 27.19728 -81.83499 313 ft 45 kts 66°
2026-04-18 15:26 27.19913 -81.83062 541 ft 79 kts 71°
2026-04-18 15:26 27.19954 -81.82368 565 ft 95 kts 101°
2026-04-18 15:26 27.19865 -81.81623 646 ft 96 kts 88°
2026-04-18 15:27 27.19988 -81.80902 832 ft 96 kts 90°
2026-04-18 15:27 27.19857 -81.80181 939 ft 97 kts 107°
2026-04-18 15:27 27.19685 -81.79454 1104 ft 97 kts 105°
2026-04-18 15:27 27.19520 -81.78723 1259 ft 96 kts 105°
2026-04-18 15:28 27.19356 -81.77998 1390 ft 95 kts 105°
2026-04-18 15:28 27.19184 -81.77277 1519 ft 95 kts 106°
2026-04-18 15:28 27.19030 -81.76577 1651 ft 91 kts 100°
2026-04-18 15:28 27.19011 -81.75840 1703 ft 97 kts 87°
2026-04-18 15:29 27.19148 -81.75104 1855 ft 96 kts 75°
2026-04-18 15:29 27.19285 -81.74385 2058 ft 94 kts 83°
2026-04-18 15:29 27.19398 -81.73654 2246 ft 98 kts 82°
2026-04-18 15:29 27.19525 -81.72955 2451 ft 91 kts 82°
2026-04-18 15:30 27.19645 -81.72261 2652 ft 89 kts 82°
2026-04-18 15:30 27.19774 -81.71585 2845 ft 89 kts 81°
2026-04-18 15:30 27.19920 -81.70899 3044 ft 90 kts 80°
2026-04-18 15:30 27.20067 -81.70207 3239 ft 91 kts 80°
2026-04-18 15:31 27.20212 -81.69513 3435 ft 91 kts 79°
2026-04-18 15:31 27.20356 -81.68826 3630 ft 90 kts 79°
2026-04-18 15:31 27.20502 -81.68143 3824 ft 90 kts 79°
2026-04-18 15:31 27.20629 -81.67456 4018 ft 90 kts 85°
2026-04-18 15:32 27.20555 -81.66764 4211 ft 89 kts 108°
2026-04-18 15:32 27.20367 -81.66107 4411 ft 89 kts 109°
2026-04-18 15:32 27.20167 -81.65439 4611 ft 90 kts 108°
2026-04-18 15:32 27.19966 -81.64769 4810 ft 90 kts 109°
2026-04-18 15:33 27.19762 -81.64099 5008 ft 91 kts 109°
2026-04-18 15:33 27.19556 -81.63430 5200 ft 90 kts 109°
2026-04-18 15:33 27.19352 -81.62767 5397 ft 89 kts 109°
2026-04-18 15:33 27.19151 -81.62124 5591 ft 87 kts 109°
2026-04-18 15:34 27.18947 -81.61476 5788 ft 89 kts 109°
2026-04-18 15:34 27.18740 -81.60814 5986 ft 90 kts 109°
2026-04-18 15:34 27.18530 -81.60146 6186 ft 91 kts 109°
2026-04-18 15:34 27.18320 -81.59480 6386 ft 90 kts 109°
2026-04-18 15:35 27.18110 -81.58815 6581 ft 91 kts 109°
2026-04-18 15:35 27.17897 -81.58143 6770 ft 92 kts 109°
2026-04-18 15:35 27.17683 -81.57467 6952 ft 92 kts 109°
2026-04-18 15:35 27.17467 -81.56786 7143 ft 93 kts 108°
2026-04-18 15:36 27.17251 -81.56100 7311 ft 94 kts 108°
2026-04-18 15:36 27.17027 -81.55388 7406 ft 98 kts 107°
2026-04-18 15:36 27.16805 -81.54668 7443 ft 97 kts 107°
2026-04-18 15:36 27.16587 -81.53957 7462 ft 95 kts 108°
2026-04-18 15:37 27.16367 -81.53242 7466 ft 98 kts 108°
2026-04-18 15:37 27.16148 -81.52533 7471 ft 95 kts 108°
2026-04-18 15:37 27.15924 -81.51815 7465 ft 101 kts 108°
2026-04-18 15:37 27.15672 -81.51026 7470 ft 112 kts 108°
2026-04-18 15:38 27.15403 -81.50182 7477 ft 116 kts 108°
2026-04-18 15:38 27.15135 -81.49330 7475 ft 116 kts 108°
2026-04-18 15:38 27.14860 -81.48462 7475 ft 120 kts 109°
2026-04-18 15:38 27.14577 -81.47570 7476 ft 124 kts 108°
2026-04-18 15:39 27.14292 -81.46670 7475 ft 122 kts 109°
2026-04-18 15:39 27.14005 -81.45767 7475 ft 123 kts 109°
2026-04-18 15:39 27.13717 -81.44859 7475 ft 123 kts 109°
2026-04-18 15:39 27.13429 -81.43952 7476 ft 123 kts 108°
2026-04-18 15:40 27.13141 -81.43045 7476 ft 124 kts 108°
2026-04-18 15:40 27.12854 -81.42144 7474 ft 123 kts 109°
2026-04-18 15:40 27.12571 -81.41255 7476 ft 122 kts 109°
2026-04-18 15:40 27.12284 -81.40357 7475 ft 123 kts 109°
2026-04-18 15:41 27.11996 -81.39455 7476 ft 122 kts 108°
2026-04-18 15:41 27.11708 -81.38555 7478 ft 122 kts 109°
2026-04-18 15:41 27.11421 -81.37657 7476 ft 123 kts 109°
2026-04-18 15:41 27.11130 -81.36747 7476 ft 124 kts 109°
2026-04-18 15:42 27.10843 -81.35848 7473 ft 121 kts 109°
2026-04-18 15:42 27.10556 -81.34953 7474 ft 122 kts 108°
2026-04-18 15:42 27.10270 -81.34056 7475 ft 122 kts 108°
2026-04-18 15:42 27.09984 -81.33159 7476 ft 122 kts 108°
2026-04-18 15:43 27.09695 -81.32257 7476 ft 123 kts 108°
2026-04-18 15:43 27.09406 -81.31351 7475 ft 124 kts 109°
2026-04-18 15:43 27.09114 -81.30439 7476 ft 124 kts 109°
2026-04-18 15:43 27.08824 -81.29530 7476 ft 124 kts 109°
2026-04-18 15:44 27.08535 -81.28626 7475 ft 122 kts 108°
2026-04-18 15:44 27.08246 -81.27724 7472 ft 124 kts 110°
2026-04-18 15:44 27.07955 -81.26818 7475 ft 123 kts 110°
2026-04-18 15:44 27.07668 -81.25920 7475 ft 122 kts 110°
2026-04-18 15:45 27.07380 -81.25024 7475 ft 123 kts 110°
2026-04-18 15:45 27.07089 -81.24121 7476 ft 123 kts 110°
2026-04-18 15:45 27.06799 -81.23217 7474 ft 124 kts 110°
2026-04-18 15:45 27.06506 -81.22304 7476 ft 125 kts 110°
2026-04-18 15:46 27.06211 -81.21384 7474 ft 125 kts 110°
2026-04-18 15:46 27.05920 -81.20474 7478 ft 124 kts 110°
2026-04-18 15:46 27.05628 -81.19567 7481 ft 123 kts 110°
2026-04-18 15:46 27.05337 -81.18660 7478 ft 124 kts 110°
2026-04-18 15:47 27.05045 -81.17748 7478 ft 123 kts 110°
2026-04-18 15:47 27.04752 -81.16836 7478 ft 125 kts 110°
2026-04-18 15:47 27.04459 -81.15925 7480 ft 124 kts 110°
2026-04-18 15:47 27.04165 -81.15009 7478 ft 125 kts 110°
2026-04-18 15:48 27.03869 -81.14090 7479 ft 126 kts 110°
2026-04-18 15:48 27.03579 -81.13186 7479 ft 124 kts 110°
2026-04-18 15:48 27.03189 -81.12328 7479 ft 124 kts 123°
2026-04-18 15:48 27.02699 -81.11528 7478 ft 125 kts 125°
2026-04-18 15:49 27.02199 -81.10747 7482 ft 122 kts 126°
2026-04-18 15:49 27.01694 -81.09966 7478 ft 123 kts 126°
2026-04-18 15:49 27.01189 -81.09193 7477 ft 123 kts 126°
2026-04-18 15:49 27.00682 -81.08418 7479 ft 123 kts 126°
2026-04-18 15:50 27.00168 -81.07639 7477 ft 125 kts 126°
2026-04-18 15:50 26.99656 -81.06859 7483 ft 122 kts 126°
2026-04-18 15:50 26.99159 -81.06100 7474 ft 124 kts 127°
2026-04-18 15:50 26.98641 -81.05318 7476 ft 125 kts 126°
2026-04-18 15:51 26.98125 -81.04539 7479 ft 125 kts 127°
2026-04-18 15:51 26.97605 -81.03757 7479 ft 125 kts 126°
2026-04-18 15:51 26.97083 -81.02969 7480 ft 126 kts 126°
2026-04-18 15:51 26.96572 -81.02193 7478 ft 123 kts 127°
2026-04-18 15:52 26.96061 -81.01422 7473 ft 124 kts 126°
2026-04-18 15:52 26.95542 -81.00642 7477 ft 125 kts 126°
2026-04-18 15:52 26.95032 -80.99865 7473 ft 124 kts 127°
2026-04-18 15:52 26.94521 -80.99094 7476 ft 122 kts 127°
2026-04-18 15:53 26.94014 -80.98331 7478 ft 122 kts 127°
2026-04-18 15:53 26.93488 -80.97581 7477 ft 123 kts 134°
2026-04-18 15:53 26.92751 -80.97101 7479 ft 124 kts 158°
2026-04-18 15:53 26.91931 -80.96787 7480 ft 124 kts 160°
2026-04-18 15:54 26.91109 -80.96497 7475 ft 124 kts 161°
2026-04-18 15:54 26.90288 -80.96213 7475 ft 124 kts 161°
2026-04-18 15:54 26.89466 -80.95928 7474 ft 123 kts 161°
2026-04-18 15:54 26.88647 -80.95645 7474 ft 124 kts 161°
2026-04-18 15:55 26.87832 -80.95362 7482 ft 119 kts 162°
2026-04-18 15:55 26.87045 -80.95087 7474 ft 119 kts 162°
2026-04-18 15:55 26.86253 -80.94813 7475 ft 120 kts 162°
2026-04-18 15:55 26.85447 -80.94535 7475 ft 122 kts 162°
2026-04-18 15:56 26.84633 -80.94255 7473 ft 123 kts 162°
2026-04-18 15:56 26.84101 -80.94069 7480 ft 119 kts 162°
2026-04-18 15:56 26.83309 -80.93793 7472 ft 121 kts 162°
2026-04-18 15:56 26.82496 -80.93514 7476 ft 123 kts 162°
2026-04-18 15:57 26.81677 -80.93232 7476 ft 122 kts 162°
2026-04-18 15:57 26.80863 -80.92950 7472 ft 124 kts 162°
2026-04-18 15:57 26.80051 -80.92668 7476 ft 120 kts 162°
2026-04-18 15:57 26.79257 -80.92391 7471 ft 120 kts 163°
2026-04-18 15:58 26.78454 -80.92114 7471 ft 121 kts 162°
2026-04-18 15:58 26.77658 -80.91838 7473 ft 119 kts 162°
2026-04-18 15:58 26.76858 -80.91561 7470 ft 122 kts 162°
2026-04-18 15:58 26.76043 -80.91281 7473 ft 123 kts 162°
2026-04-18 15:59 26.75217 -80.90997 7473 ft 124 kts 162°
2026-04-18 15:59 26.74391 -80.90711 7475 ft 125 kts 162°
2026-04-18 15:59 26.73561 -80.90425 7474 ft 125 kts 162°
2026-04-18 15:59 26.72734 -80.90139 7474 ft 125 kts 162°
2026-04-18 16:00 26.71910 -80.89852 7474 ft 123 kts 161°
2026-04-18 16:00 26.71101 -80.89570 7475 ft 121 kts 161°
2026-04-18 16:00 26.70287 -80.89288 7473 ft 124 kts 162°
2026-04-18 16:00 26.69458 -80.89003 7473 ft 125 kts 162°
2026-04-18 16:01 26.68629 -80.88717 7472 ft 125 kts 162°
2026-04-18 16:01 26.67810 -80.88433 7473 ft 121 kts 162°
2026-04-18 16:01 26.67006 -80.88155 7469 ft 122 kts 162°
2026-04-18 16:01 26.66194 -80.87876 7469 ft 122 kts 161°
2026-04-18 16:02 26.65386 -80.87598 7470 ft 122 kts 162°
2026-04-18 16:02 26.64568 -80.87317 7469 ft 124 kts 162°
2026-04-18 16:02 26.63742 -80.87032 7473 ft 123 kts 162°
2026-04-18 16:02 26.62936 -80.86696 7469 ft 124 kts 149°
2026-04-18 16:03 26.62353 -80.85993 7473 ft 125 kts 122°
2026-04-18 16:03 26.61938 -80.85149 7474 ft 123 kts 119°
2026-04-18 16:03 26.61550 -80.84297 7466 ft 125 kts 118°
2026-04-18 16:03 26.61164 -80.83454 7469 ft 124 kts 118°
2026-04-18 16:04 26.60761 -80.82582 7470 ft 125 kts 118°
2026-04-18 16:04 26.60370 -80.81735 7471 ft 123 kts 120°
2026-04-18 16:04 26.59970 -80.80875 7469 ft 125 kts 119°
2026-04-18 16:04 26.59574 -80.80028 7475 ft 123 kts 119°
2026-04-18 16:05 26.59181 -80.79184 7473 ft 122 kts 119°
2026-04-18 16:05 26.58789 -80.78347 7468 ft 122 kts 120°
2026-04-18 16:05 26.58389 -80.77502 7471 ft 124 kts 119°
2026-04-18 16:05 26.57984 -80.76648 7477 ft 125 kts 119°
2026-04-18 16:06 26.57588 -80.75803 7469 ft 122 kts 120°
2026-04-18 16:06 26.57187 -80.74959 7470 ft 124 kts 119°
2026-04-18 16:06 26.56779 -80.74100 7462 ft 126 kts 118°
2026-04-18 16:06 26.56381 -80.73251 7459 ft 123 kts 119°
2026-04-18 16:07 26.55986 -80.72413 7464 ft 121 kts 119°
2026-04-18 16:07 26.55587 -80.71571 7468 ft 124 kts 118°
2026-04-18 16:07 26.55192 -80.70732 7468 ft 120 kts 119°
2026-04-18 16:07 26.54800 -80.69901 7464 ft 122 kts 119°
2026-04-18 16:08 26.54406 -80.69071 7469 ft 120 kts 119°
2026-04-18 16:08 26.54011 -80.68236 7470 ft 123 kts 118°
2026-04-18 16:08 26.53613 -80.67392 7474 ft 121 kts 119°
2026-04-18 16:08 26.53220 -80.66560 7469 ft 121 kts 119°
2026-04-18 16:09 26.52819 -80.65722 7467 ft 123 kts 118°
2026-04-18 16:09 26.52413 -80.64867 7467 ft 125 kts 118°
2026-04-18 16:09 26.52013 -80.64022 7467 ft 122 kts 118°
2026-04-18 16:09 26.51619 -80.63185 7466 ft 122 kts 118°
2026-04-18 16:10 26.51216 -80.62339 7465 ft 124 kts 118°
2026-04-18 16:10 26.50823 -80.61504 7469 ft 119 kts 119°
2026-04-18 16:10 26.50431 -80.60676 7463 ft 122 kts 119°
2026-04-18 16:10 26.50034 -80.59843 7469 ft 121 kts 119°
2026-04-18 16:11 26.49634 -80.58999 7465 ft 124 kts 119°
2026-04-18 16:11 26.49237 -80.58162 7474 ft 120 kts 118°
2026-04-18 16:11 26.48840 -80.57325 7466 ft 123 kts 118°
2026-04-18 16:11 26.48447 -80.56484 7464 ft 122 kts 118°
2026-04-18 16:12 26.48054 -80.55630 7466 ft 124 kts 117°
2026-04-18 16:12 26.47669 -80.54781 7473 ft 120 kts 118°
2026-04-18 16:12 26.47287 -80.53939 7463 ft 123 kts 118°
2026-04-18 16:12 26.46897 -80.53086 7461 ft 124 kts 118°
2026-04-18 16:13 26.46508 -80.52234 7468 ft 123 kts 118°
2026-04-18 16:13 26.46123 -80.51387 7465 ft 123 kts 118°
2026-04-18 16:13 26.45730 -80.50529 7466 ft 125 kts 118°
2026-04-18 16:13 26.45336 -80.49666 7469 ft 124 kts 118°
2026-04-18 16:14 26.44946 -80.48809 7463 ft 124 kts 118°
2026-04-18 16:14 26.44552 -80.47947 7468 ft 125 kts 118°
2026-04-18 16:14 26.44156 -80.47080 7476 ft 125 kts 117°
2026-04-18 16:14 26.43766 -80.46218 7476 ft 124 kts 118°
2026-04-18 16:15 26.42985 -80.44504 7476 ft 124 kts 117°
2026-04-18 16:15 26.42595 -80.43651 7478 ft 124 kts 118°
2026-04-18 16:15 26.42208 -80.42800 7483 ft 122 kts 118°
2026-04-18 16:16 26.41827 -80.41964 7477 ft 124 kts 118°
2026-04-18 16:16 26.41432 -80.41103 7484 ft 124 kts 117°
2026-04-18 16:16 26.41039 -80.40238 7479 ft 124 kts 118°
2026-04-18 16:16 26.40651 -80.39390 7480 ft 126 kts 118°
2026-04-18 16:17 26.40251 -80.38511 7409 ft 123 kts 116°
2026-04-18 16:17 26.39885 -80.37669 7065 ft 119 kts 117°
2026-04-18 16:17 26.39525 -80.36845 6834 ft 119 kts 119°
2026-04-18 16:17 26.39159 -80.36021 6524 ft 118 kts 118°
2026-04-18 16:18 26.38811 -80.35230 6158 ft 113 kts 119°
2026-04-18 16:18 26.38456 -80.34434 5783 ft 113 kts 118°
2026-04-18 16:18 26.38099 -80.33642 5408 ft 115 kts 118°
2026-04-18 16:18 26.37739 -80.32848 5055 ft 116 kts 118°
2026-04-18 16:19 26.37383 -80.32056 4693 ft 113 kts 117°
2026-04-18 16:19 26.37025 -80.31263 4319 ft 115 kts 116°
2026-04-18 16:19 26.36667 -80.30472 3948 ft 114 kts 116°
2026-04-18 16:19 26.36301 -80.29673 3688 ft 117 kts 115°
2026-04-18 16:20 26.35931 -80.28887 3581 ft 113 kts 115°
2026-04-18 16:20 26.35555 -80.28098 3530 ft 118 kts 115°
2026-04-18 16:20 26.35179 -80.27307 3505 ft 115 kts 114°
2026-04-18 16:20 26.34813 -80.26530 3511 ft 111 kts 114°
2026-04-18 16:21 26.34453 -80.25761 3499 ft 113 kts 115°
2026-04-18 16:21 26.34087 -80.24974 3501 ft 115 kts 115°
2026-04-18 16:21 26.33723 -80.24185 3460 ft 112 kts 112°
2026-04-18 16:21 26.33384 -80.23427 3111 ft 109 kts 114°
2026-04-18 16:22 26.33042 -80.22654 2748 ft 110 kts 113°
2026-04-18 16:22 26.32742 -80.21980 2404 ft 85 kts 114°
2026-04-18 16:22 26.32479 -80.21420 2028 ft 81 kts 113°
2026-04-18 16:22 26.32208 -80.20886 1658 ft 79 kts 115°
2026-04-18 16:23 26.31939 -80.20332 1314 ft 83 kts 113°
2026-04-18 16:23 26.31656 -80.19790 1148 ft 81 kts 116°
2026-04-18 16:23 26.31086 -80.18689 1048 ft 81 kts 110°
2026-04-18 16:24 26.31114 -80.18077 1034 ft 85 kts 64°
2026-04-18 16:24 26.31539 -80.17610 1023 ft 88 kts 41°
2026-04-18 16:24 26.31995 -80.17180 1027 ft 84 kts 44°
2026-04-18 16:24 26.32468 -80.16773 1015 ft 86 kts 42°
2026-04-18 16:25 26.32915 -80.16355 1014 ft 84 kts 50°
2026-04-18 16:25 26.33296 -80.15859 1015 ft 85 kts 57°
2026-04-18 16:25 26.33642 -80.15327 1046 ft 85 kts 54°
2026-04-18 16:25 26.34023 -80.14854 1065 ft 79 kts 49°
2026-04-18 16:26 26.34398 -80.14455 1089 ft 70 kts 47°
2026-04-18 16:26 26.34732 -80.14111 974 ft 61 kts 46°
2026-04-18 16:26 26.35029 -80.13815 902 ft 54 kts 48°
2026-04-18 16:26 26.35289 -80.13552 804 ft 49 kts 50°
2026-04-18 16:27 26.35525 -80.13309 688 ft 44 kts 52°
2026-04-18 16:27 26.35734 -80.13071 645 ft 41 kts 52°
2026-04-18 16:27 26.35919 -80.12851 575 ft 38 kts 53°
2026-04-18 16:27 26.36107 -80.12647 550 ft 37 kts 52°
2026-04-18 16:28 26.36298 -80.12475 504 ft 34 kts 53°
2026-04-18 16:28 26.36468 -80.12301 391 ft 32 kts 58°
2026-04-18 16:28 26.36620 -80.12127 347 ft 31 kts 56°
2026-04-18 16:28 26.36778 -80.11966 325 ft 30 kts 57°
2026-04-18 16:29 26.36927 -80.11804 302 ft 30 kts 58°
2026-04-18 16:29 26.37072 -80.11645 266 ft 29 kts 62°
2026-04-18 16:29 26.37214 -80.11486 224 ft 29 kts 65°
2026-04-18 16:29 26.37352 -80.11326 163 ft 28 kts 63°
2026-04-18 16:30 26.37488 -80.11177 104 ft 26 kts 60°
2026-04-18 16:30 26.37608 -80.11022 63 ft 27 kts 44°
2026-04-18 16:30 26.37738 -80.10880 44 ft 24 kts 44°
2026-04-18 16:30 26.37837 -80.10770 43 ft 19 kts 45°
2026-04-18 16:31 26.37936 -80.10666 46 ft 20 kts 44°
2026-04-18 16:31 26.38026 -80.10569 47 ft 14 kts 45°
2026-04-18 16:31 26.38077 -80.10511 45 ft 9 kts 350°
2026-04-18 16:31 26.38127 -80.10534 44 ft 4 kts 308°
2026-04-18 16:32 26.38127 -80.10533 49 ft 0 kts 308°
2026-04-18 16:32 26.38131 -80.10540 49 ft 3 kts 325°
2026-04-18 16:32 26.38149 -80.10552 51 ft 3 kts 50°
2026-04-18 16:32 26.38168 -80.10529 55 ft 6 kts 49°
2026-04-18 16:33 26.38194 -80.10500 52 ft 5 kts 36°
2026-04-18 16:33 26.38216 -80.10483 47 ft 5 kts 327°
2026-04-18 16:33 26.38244 -80.10482 51 ft 5 kts
2026-04-18 16:33 26.38275 -80.10492 51 ft 5 kts
2026-04-18 16:34 26.38316 -80.10496 52 ft 7 kts 336°
2026-04-18 16:34 26.38355 -80.10502 54 ft 7 kts
2026-04-18 16:34 26.38362 -80.10495 48 ft 0 kts 41°
2026-04-18 16:34 26.38363 -80.10497 29 ft 0 kts 41°
2026-04-18 16:35 26.38362 -80.10498 28 ft 0 kts 41°